Overview Statistics Trail Chart Weather Telemetry Raw packets
 

This is the latest recevied weather packets stored in our database for station/object WD7OO. If no packets are shown the sender has not sent any weather packets the latest 10 day(s).

<< 67 68 69 70 71 72 73 >>
Time Temp. Humidity Pressure Rain* Wind** Luminosity Snow
1788152889 21.67° C 99% 1017.1 hPa 0 mm - 0 W/m² -
1788152588 21.67° C 99% 1017.2 hPa 0 mm - 0 W/m² -
1788152282 21.67° C 99% 1017.4 hPa 0 mm - 0 W/m² -
1788151977 21.67° C 99% 1017.1 hPa 0 mm - 0 W/m² -
1788151672 21.67° C 99% 1017.4 hPa 0 mm - 0 W/m² -
1788151378 21.67° C 99% 1017.3 hPa 0 mm - 0 W/m² -
1788151062 21.67° C 99% 1017.3 hPa 0 mm - 0 W/m² -
1788150757 21.67° C 99% 1017.2 hPa 0 mm - 0 W/m² -
1788150457 21.67° C 99% 1017.5 hPa 0 mm - 0 W/m² -
1788150152 21.67° C 99% 1017.4 hPa 0 mm - 0 W/m² -
1788149847 21.67° C 99% 1017.3 hPa 0 mm - 0 W/m² -
1788149546 21.67° C 99% 1017.4 hPa 0 mm - 0 W/m² -
1788149241 21.67° C 99% 1017.4 hPa 0 mm - 0 W/m² -
1788148940 21.67° C 99% 1017.2 hPa 0 mm - 0 W/m² -
1788148639 21.67° C 99% 1016.9 hPa 0 mm - 0 W/m² -
1788148333 21.67° C 99% 1016.9 hPa 0 mm - 0 W/m² -
1788148033 21.67° C 99% 1017 hPa 0 mm - 0 W/m² -
1788147729 21.67° C 99% 1017.2 hPa 0 mm - 0 W/m² -
1788147424 21.67° C 99% 1016.9 hPa 0 mm - 0 W/m² -
1788147123 21.67° C 99% 1017.1 hPa 0 mm - 0 W/m² -
1788146818 21.67° C 99% 1017.4 hPa 1.27 mm - 0 W/m² -
1788146513 21.67° C 99% 1017.6 hPa 4.32 mm - 0 W/m² -
1788146218 21.67° C 99% 1017.9 hPa 6.6 mm - 0 W/m² -
1788145908 21.67° C 99% 1017.8 hPa 3.56 mm - 0 W/m² -
1788145606 21.67° C 99% 1017.7 hPa 0 mm - 0 W/m² -

* Rain latest hour (hover to see other rain measurements)
** Current wind speed in m/s (hover to see current wind gust speed)